Date String (YYYY-MM-DD hh:mm:ss) UTC,Instrument flags,Ambient pressure (hPa),Sample flow (lpm),Bypass flow (lpm),Sample temperature (°C),Ambient temperature (°C),ASC tube jacket temperature (°C),LED temperature (°C),Box temperature (°C),Sample RH (%),Span deviation,Mass concentration (μg/m³),Mass concentration (μg/m³),Mass concentration (μg/m³)
DateTimeUTC,F1_M11,P_M11,Q1_M11,Q2_M11,T1_M11,T2_M11,T3_M11,T4_M11,T5_M11,U1_M11,ZSPAN_M11,X0_M11,X2_M11,X1_M11
2021-12-04 09:00:00,,0828.0,5.00,0.00,24.9,24.1,00.0,33.9,26.7,14.0,0000.0,0009.96,0003.24,0002.00
2021-12-04 09:01:00,,0828.0,5.00,0.00,24.9,24.1,00.0,33.9,26.7,14.0,0000.0,0010.56,0003.22,0001.99
2021-12-04 09:02:00,,0828.0,5.00,0.00,24.9,24.1,00.0,33.9,26.6,14.1,0000.0,0010.71,0003.20,0001.99
2021-12-04 09:03:00,,0828.0,5.00,0.00,24.9,24.0,00.0,33.9,26.7,14.1,0000.0,0010.01,0003.18,0001.97
2021-12-04 09:04:00,,0828.0,5.00,0.00,24.9,24.0,00.0,33.9,26.7,14.0,0000.0,0010.57,0003.23,0001.97
2021-12-04 09:05:00,,0828.0,5.02,0.00,24.9,24.0,00.0,33.9,26.6,13.8,0000.0,0010.57,0003.22,0001.95
2021-12-04 09:06:00,,0828.0,5.00,0.00,24.9,24.0,00.0,33.9,26.6,13.7,0000.0,0010.63,0003.22,0001.94
2021-12-04 09:07:00,,0828.0,4.99,0.00,24.8,24.0,00.0,33.9,26.6,14.2,0000.0,0011.74,0003.22,0001.92
2021-12-04 09:08:00,,0828.1,5.00,0.00,24.8,24.0,00.0,33.9,26.6,14.6,0000.0,0012.64,0003.22,0001.93
2021-12-04 09:09:00,,0828.0,5.01,0.00,24.8,24.0,00.0,33.8,26.6,14.8,0000.0,0013.10,0003.24,0001.95
2021-12-04 09:10:00,,0828.1,5.00,0.00,24.8,24.0,00.0,33.8,26.6,14.9,0000.0,0013.10,0003.22,0001.98
2021-12-04 09:11:00,,0828.1,5.01,0.00,24.8,24.0,00.0,33.8,26.6,14.9,0000.0,0013.08,0003.23,0002.01
2021-12-04 09:12:00,,0828.1,4.99,0.00,24.8,24.0,00.0,33.8,26.6,14.8,0000.0,0013.31,0003.27,0002.04
2021-12-04 09:13:00,,0828.1,5.01,0.00,24.8,24.0,00.0,33.8,26.6,14.7,0000.0,0013.17,0003.34,0002.08
2021-12-04 09:14:00,,0828.1,4.99,0.00,24.8,24.0,00.0,33.8,26.6,14.9,0000.0,0013.57,0003.44,0002.15
2021-12-04 09:15:00,,0828.1,5.00,0.00,24.8,23.9,00.0,33.8,26.6,15.0,0000.0,0012.92,0003.50,0002.20
2021-12-04 09:16:00,,0828.1,5.00,0.00,24.8,23.9,00.0,33.8,26.6,15.0,0000.0,0012.54,0003.56,0002.24
2021-12-04 09:17:00,,0828.1,4.99,0.00,24.8,23.9,00.0,33.8,26.6,15.1,0000.0,0012.65,0003.58,0002.26
2021-12-04 09:18:00,,0828.1,4.99,0.00,24.8,23.9,00.0,33.8,26.6,15.2,0000.0,0011.69,0003.62,0002.29
2021-12-04 09:19:00,,0828.1,5.01,0.00,24.8,23.9,00.0,33.8,26.6,15.1,0000.0,0010.95,0003.66,0002.32
2021-12-04 09:20:00,,0828.1,4.99,0.00,24.7,23.9,00.0,33.8,26.6,15.1,0000.0,0011.79,0003.70,0002.34
2021-12-04 09:21:00,,0828.1,5.02,0.00,24.8,23.9,00.0,33.8,26.5,15.2,0000.0,0012.48,0003.75,0002.35
2021-12-04 09:22:00,,0828.1,4.99,0.00,24.7,23.9,00.0,33.8,26.5,15.4,0000.0,0013.18,0003.86,0002.38
2021-12-04 09:23:00,,0828.1,5.00,0.00,24.7,23.9,00.0,33.8,26.5,15.3,0000.0,0012.99,0003.93,0002.40
2021-12-04 09:24:00,,0828.1,5.01,0.00,24.7,23.9,00.0,33.8,26.5,15.3,0000.0,0012.96,0003.97,0002.43
2021-12-04 09:25:00,,0828.1,4.99,0.00,24.7,23.9,00.0,33.8,26.5,15.3,0000.0,0013.19,0003.91,0002.41
2021-12-04 09:26:00,,0828.0,5.00,0.00,24.7,23.9,00.0,33.7,26.5,15.3,0000.0,0014.00,0003.90,0002.41
2021-12-04 09:27:00,,0828.0,5.01,0.00,24.7,23.9,00.0,33.7,26.5,15.3,0000.0,0014.15,0003.84,0002.40
2021-12-04 09:28:00,,0828.0,4.99,0.00,24.7,23.9,00.0,33.7,26.5,15.3,0000.0,0014.07,0003.87,0002.43
2021-12-04 09:29:00,,0828.0,5.00,0.00,24.7,23.9,00.0,33.7,26.5,15.3,0000.0,0014.23,0003.83,0002.43
2021-12-04 09:30:00,,0828.0,5.00,0.00,24.7,23.9,00.0,33.7,26.5,15.3,0000.0,0014.52,0003.85,0002.44
2021-12-04 09:31:00,,0828.1,5.01,0.00,24.7,23.9,00.0,33.7,26.5,15.3,0000.0,0013.53,0003.88,0002.44
2021-12-04 09:32:00,,0828.1,4.99,0.00,24.7,23.9,00.0,33.7,26.5,15.3,0000.0,0012.80,0003.86,0002.43
2021-12-04 09:33:00,,0828.0,5.01,0.00,24.7,23.9,00.0,33.7,26.5,15.3,0000.0,0012.04,0003.78,0002.43
2021-12-04 09:34:00,,0828.0,4.99,0.00,24.7,23.9,00.0,33.7,26.5,15.3,0000.0,0011.71,0003.68,0002.43
2021-12-04 09:35:00,,0828.1,5.01,0.00,24.7,23.9,00.0,33.7,26.5,15.2,0000.0,0012.48,0003.67,0002.42
2021-12-04 09:36:00,,0828.1,5.01,0.00,24.7,23.9,00.0,33.7,26.5,15.1,0000.0,0012.33,0003.71,0002.43
2021-12-04 09:37:00,,0828.1,5.01,0.00,24.7,23.8,00.0,33.7,26.5,15.1,0000.0,0011.30,0003.73,0002.43
2021-12-04 09:38:00,,0828.1,4.99,0.00,24.7,23.8,00.0,33.7,26.5,15.0,0000.0,0011.32,0003.76,0002.43
2021-12-04 09:39:00,,0828.1,5.01,0.00,24.7,23.8,00.0,33.7,26.5,14.9,0000.0,0011.49,0003.80,0002.43
2021-12-04 09:40:00,,0828.1,5.00,0.00,24.7,23.8,00.0,33.7,26.5,14.8,0000.0,0011.30,0003.84,0002.42
2021-12-04 09:41:00,,0828.1,5.00,0.00,24.7,23.8,00.0,33.7,26.5,14.8,0000.0,0011.63,0003.90,0002.40
2021-12-04 09:42:00,,0828.1,5.01,0.00,24.7,23.8,00.0,33.7,26.5,14.8,0000.0,0011.72,0003.87,0002.39
2021-12-04 09:43:00,,0828.1,5.00,0.00,24.7,23.8,00.0,33.7,26.5,14.7,0000.0,0012.27,0003.91,0002.40
2021-12-04 09:44:00,,0828.1,5.01,0.00,24.7,23.8,00.0,33.7,26.5,14.6,0000.0,0012.17,0003.95,0002.41
2021-12-04 09:45:00,,0828.0,4.99,0.00,24.7,23.8,00.0,33.7,26.5,14.6,0000.0,0012.64,0004.00,0002.42
2021-12-04 09:46:00,,0828.0,5.01,0.00,24.7,23.8,00.0,33.7,26.5,14.7,0000.0,0012.67,0004.07,0002.42
2021-12-04 09:47:00,,0828.0,4.99,0.00,24.7,23.8,00.0,33.7,26.5,14.7,0000.0,0013.48,0004.18,0002.44
2021-12-04 09:48:00,,0828.0,5.01,0.00,24.7,23.8,00.0,33.7,26.5,14.8,0000.0,0013.91,0004.22,0002.46
2021-12-04 09:49:00,,0828.0,4.99,0.00,24.6,23.8,00.0,33.7,26.4,14.9,0000.0,0013.93,0004.26,0002.50
2021-12-04 09:50:00,,0828.0,5.00,0.00,24.6,23.8,00.0,33.7,26.4,15.0,0000.0,0013.39,0004.25,0002.53
2021-12-04 09:51:00,,0828.0,5.00,0.00,24.6,23.8,00.0,33.6,26.4,15.0,0000.0,0014.08,0004.24,0002.56
2021-12-04 09:52:00,,0828.0,5.00,0.00,24.6,23.7,00.0,33.6,26.3,15.0,0000.0,0014.43,0004.22,0002.58
2021-12-04 09:53:00,,0828.1,4.99,0.00,24.6,23.7,00.0,33.6,26.3,15.0,0000.0,0015.29,0004.25,0002.64
2021-12-04 09:54:00,,0828.0,5.01,0.00,24.6,23.7,00.0,33.6,26.3,15.0,0000.0,0015.79,0004.27,0002.69
2021-12-04 09:55:00,,0828.0,4.98,0.00,24.5,23.7,00.0,33.6,26.3,15.0,0000.0,0017.65,0004.25,0002.71
2021-12-04 09:56:00,,0828.0,5.00,0.00,24.5,23.7,00.0,33.6,26.3,15.0,0000.0,0017.68,0004.27,0002.77
2021-12-04 09:57:00,,0828.0,5.00,0.00,24.5,23.6,00.0,33.6,26.2,15.1,0000.0,0017.70,0004.28,0002.81
2021-12-04 09:58:00,,0828.0,5.00,0.00,24.5,23.6,00.0,33.6,26.2,15.1,0000.0,0016.97,0004.16,0002.83
2021-12-04 09:59:00,,0828.0,5.01,0.00,24.5,23.6,00.0,33.6,26.2,15.0,0000.0,0016.74,0004.11,0002.86
